Canberra, Capital Territory

2:54 AM AEDT on February 09, 2016 (GMT +1100)
Canberra

Weather History for YSCB - October, 2013

Change the Weather History Date:

Saturday, October 5, 2013

  Actual Average Record
Temperature  
Mean Temperature 50 °F -  
Max Temperature 68 °F 68 °F - ()
Min Temperature 33 °F 44 °F - ()
Degree Days  
Heating Degree Days 14    
Moisture  
Dew Point 39 °F    
Average Humidity 64    
Maximum Humidity 100    
Minimum Humidity 25    
Precipitation  
Precipitation 0.00 in 0.09 in - ()
Sea Level Pressure  
Sea Level Pressure 29.99 in    
Wind  
Wind Speed 6 mph ()    
Max Wind Speed 22 mph    
Max Gust Speed -    
Visibility 6.2 miles    
Events Fog    
T = Trace of Precipitation, MM = Missing Value Source: Averaged Metar Reports

Daily Weather History Graph

Daily Weather History Graph

Search for Another Location

Airport or City:

Trip Planner

Search our weather history database for the weather conditions in past years. The results will help you decide how hot, cold, wet, or windy it might be!

Date:

Astronomy

Oct. 05, 2013 Rise Set
Actual Time 5:34 AM AEST 6:09 PM AEST
Civil Twilight 5:09 AM AEST 6:35 PM AEST
Nautical Twilight 4:38 AM AEST 7:05 PM AEST
Astronomical Twilight 4:08 AM AEST 7:36 PM AEST
Moon 5:21 AM AEST (10/5) 6:26 PM AEST (10/5)
Length of Visible Light 13h 26m
Length of Day
12h 34m
New Moon, 0% of the Moon is Illuminated
Oct 5
New Moon
Oct 12
First Quarter
Oct 19
Full
Oct 27
Last Quarter
Nov 3
New

Hourly Weather History & Observations

Time (AEST) Temp. Windchill Dew Point Humidity Pressure Visibility Wind Dir Wind Speed Gust Speed Precip Events Conditions
12:00 AM 41 °F - 37 °F 81% 30.08 in - ESE 5.8 mph - -  
12:00 AM 41.0 °F 37.1 °F 37.4 °F 87% 30.09 in 6.2 mi ESE 5.8 mph - N/A   Unknown
12:30 AM 39.2 °F - 33.8 °F 81% 30.06 in 6.2 mi Calm Calm - N/A   Unknown
1:00 AM 39 °F - 35 °F 82% 30.05 in - Calm Calm - -  
1:00 AM 39.2 °F - 35.6 °F 87% 30.06 in 6.2 mi Calm Calm - N/A   Unknown
1:30 AM 37.4 °F 32.8 °F 33.8 °F 87% 30.06 in 6.2 mi SE 5.8 mph - N/A   Unknown
2:00 AM 37.4 °F - 33.8 °F 87% 30.06 in 6.2 mi East 2.3 mph - N/A   Unknown
2:30 AM 37.4 °F 34.9 °F 35.6 °F 93% 30.04 in 6.2 mi NNE 3.5 mph - N/A   Unknown
3:00 AM 34 °F - 32 °F 89% 30.03 in - ESE 2.3 mph - -  
3:00 AM 33.8 °F - 32.0 °F 93% 30.04 in 6.2 mi ESE 2.3 mph - N/A   Unknown
3:30 AM 35.6 °F - 33.8 °F 93% 30.01 in 6.2 mi Calm Calm - N/A   Unknown
4:00 AM 35 °F - 34 °F 94% 30.01 in - Calm Calm - -  
4:00 AM 35.6 °F - 33.8 °F 93% 30.01 in 6.2 mi Calm Calm - N/A   Unknown
4:30 AM 35.6 °F - 35.6 °F 100% 30.01 in 6.2 mi Calm Calm - N/A   Unknown
5:00 AM 35.6 °F - 33.8 °F 93% 30.04 in 6.2 mi Calm Calm - N/A   Unknown
5:30 AM 33.8 °F - 32.0 °F 93% 30.04 in 6.2 mi Calm Calm - N/A   Unknown
6:00 AM 35 °F - 34 °F 92% 30.03 in - Calm Calm - -  
6:00 AM 35.6 °F - 33.8 °F 93% 30.04 in 6.2 mi Calm Calm - N/A Fog Shallow Fog
6:30 AM 35.6 °F - 35.6 °F 100% 30.04 in 6.2 mi Calm Calm - N/A Fog Shallow Fog
6:44 AM 37.4 °F - 37.4 °F 100% 30.04 in 6.2 mi ESE 1.2 mph - N/A   Scattered Clouds
7:00 AM 41 °F - 40 °F 95% 30.04 in - ESE 3.5 mph - -  
7:00 AM 41.0 °F 39.0 °F 41.0 °F 100% 30.04 in - ESE 3.5 mph - N/A   Clear
7:30 AM 44.6 °F 42.2 °F 41.0 °F 87% 30.04 in - SE 4.6 mph - N/A   Clear
8:00 AM 46.4 °F - 41.0 °F 81% 30.04 in - NE 1.2 mph - N/A   Clear
8:30 AM 50.0 °F - 42.8 °F 76% 30.04 in - NNW 4.6 mph - N/A   Clear
9:00 AM 53 °F - 44 °F 62% 30.03 in - NW 4.6 mph - -  
9:00 AM 53.6 °F - 44.6 °F 72% 30.04 in - NW 4.6 mph - N/A   Clear
9:30 AM 57.2 °F - 44.6 °F 63% 30.01 in - NW 5.8 mph - N/A   Clear
10:00 AM 63 °F - 42 °F 35% 30.00 in - NNW 10.4 mph - -  
10:00 AM 62.6 °F - 42.8 °F 48% 30.01 in - NNW 10.4 mph - N/A   Clear
10:30 AM 64.4 °F - 41.0 °F 42% 30.01 in - NNW 11.5 mph - N/A   Clear
11:00 AM 64.4 °F - 44.6 °F 49% 29.98 in - NNW 13.8 mph - N/A   Clear
11:30 AM 64.4 °F - 44.6 °F 49% 29.98 in - NNW 13.8 mph - N/A   Clear
12:00 PM 66.2 °F - 44.6 °F 46% 29.95 in - NNW 17.3 mph - N/A   Clear
12:30 PM 66.2 °F - 39.2 °F 37% 29.95 in - NNW 17.3 mph - N/A   Clear
1:00 PM 66 °F - 45 °F 35% 29.94 in - North 18.4 mph - -  
1:00 PM 66.2 °F - 44.6 °F 46% 29.95 in - North 18.4 mph - N/A   Clear
1:30 PM 66.2 °F - 42.8 °F 43% 29.92 in - NNW 19.6 mph - N/A   Clear
2:00 PM 66.2 °F - 39.2 °F 37% 29.95 in - NW 20.7 mph - N/A   Clear
2:30 PM 64.4 °F - 41.0 °F 42% 29.92 in 6.2 mi NW 21.9 mph - N/A   Scattered Clouds
3:00 PM 66 °F - 40 °F 28% 29.92 in - NW 20.7 mph - -  
3:00 PM 66.2 °F - 41.0 °F 40% 29.92 in 6.2 mi NW 20.7 mph - N/A   Scattered Clouds
3:30 PM 68.0 °F - 39.2 °F 35% 29.92 in - WNW 17.3 mph - N/A   Clear
4:00 PM 66 °F - 39 °F 25% 29.91 in - WNW 17.3 mph - -  
4:00 PM 66.2 °F - 39.2 °F 37% 29.92 in - WNW 17.3 mph - N/A   Clear
4:30 PM 64.4 °F - 39.2 °F 40% 29.92 in - NW 17.3 mph - N/A   Clear
5:00 PM 64.4 °F - 39.2 °F 40% 29.92 in - NNW 18.4 mph - N/A   Clear
5:30 PM 62.6 °F - 39.2 °F 42% 29.92 in - North 12.7 mph - N/A   Clear
6:00 PM 60 °F - 38 °F 33% 29.94 in - North 9.2 mph - -  
6:00 PM 59.0 °F - 39.2 °F 48% 29.95 in - North 9.2 mph - N/A   Clear
6:30 PM 57.2 °F - 39.2 °F 51% 29.95 in 6.2 mi NNW 11.5 mph - N/A   Unknown
7:00 PM 59 °F - 37 °F 32% 29.93 in - NW 13.8 mph - -  
7:00 PM 59.0 °F - 37.4 °F 45% 29.95 in 6.2 mi NW 13.8 mph - N/A   Unknown
7:30 PM 55.4 °F - 35.6 °F 47% 29.95 in 6.2 mi NW 8.1 mph - N/A   Unknown
8:00 PM 55.4 °F - 37.4 °F 51% 29.95 in 6.2 mi North 8.1 mph - N/A   Unknown
8:30 PM 55.4 °F - 39.2 °F 54% 29.95 in 6.2 mi North 9.2 mph - N/A   Unknown
9:00 PM 52 °F - 39 °F 51% 29.95 in - North 6.9 mph - -  
9:00 PM 51.8 °F - 39.2 °F 62% 29.95 in 6.2 mi North 6.9 mph - N/A   Unknown
9:30 PM 53.6 °F - 39.2 °F 58% 29.95 in 6.2 mi NNE 6.9 mph - N/A   Unknown
10:00 PM 52 °F - 39 °F 51% 29.93 in - NNE 4.6 mph - -  
10:00 PM 51.8 °F - 39.2 °F 62% 29.95 in 6.2 mi NNE 4.6 mph - N/A   Unknown
10:30 PM 50.0 °F - 39.2 °F 66% 29.95 in 6.2 mi NNW 4.6 mph - N/A   Unknown
11:00 PM 42.8 °F - 35.6 °F 76% 29.95 in 6.2 mi NE 2.3 mph - N/A   Unknown
11:30 PM 42.8 °F 40.1 °F 35.6 °F 76% 29.92 in 6.2 mi SE 4.6 mph - N/A   Unknown